DateTimeUTC,F1_A11,F1_S11,BsB_S11,BsG_S11,BsR_S11,BbsB_S11,BbsG_S11,BbsR_S11,BaB_A11,BaG_A11,BaR_A11,Tu_S11,T_S11,Uu_S11,U_S11,P_S11,T1_A11
2021-08-27T09:00:00Z,00000200,20000000,,,,,,,0000.11,-000.37,-000.25,18.7,25.4,05.9,03.9,0670.7,30.8
2021-08-27T09:01:00Z,00000200,20000000,,,,,,,-000.39,0000.22,0000.15,18.7,25.4,05.9,03.9,0670.6,30.8
2021-08-27T09:02:00Z,00000200,20000000,,,,,,,0000.26,-000.01,0000.01,18.7,25.4,05.9,03.9,0670.6,30.9
2021-08-27T09:03:00Z,00000200,60000000,,,,,,,0000.40,0000.59,0000.31,18.7,25.4,05.9,03.9,0670.6,30.9
2021-08-27T09:04:00Z,00000200,40000000,0004.12,0002.63,0001.55,0000.13,0000.38,0000.16,0000.83,0000.66,0000.83,19.1,25.4,06.0,04.1,0671.5,30.9
2021-08-27T09:05:00Z,00000200,00000000,0003.33,0002.85,0001.86,0000.48,0000.34,0000.34,0001.14,0000.57,0000.12,19.2,25.4,06.0,04.1,0671.7,30.9
2021-08-27T09:06:00Z,00000200,00000000,0003.55,0002.77,0001.72,0000.44,0000.50,0000.11,0000.17,0001.01,0000.31,19.3,25.4,06.0,04.1,0671.7,30.9
2021-08-27T09:07:00Z,00000200,00000000,0003.68,0002.57,0001.78,0000.08,0000.12,0000.20,0000.82,0000.38,0000.96,19.2,25.4,06.0,04.2,0671.6,30.9
2021-08-27T09:08:00Z,00000200,00000000,0002.91,0002.94,0002.00,-000.21,0000.32,0000.08,0000.39,0000.76,0000.31,19.2,25.3,06.1,04.2,0671.7,30.9
2021-08-27T09:09:00Z,00000200,00000000,0003.77,0002.90,0002.31,-000.08,0000.57,0000.18,0000.77,0000.55,0000.75,19.1,25.3,06.2,04.2,0671.7,30.9
2021-08-27T09:10:00Z,00000200,00000000,0003.37,0002.93,0001.87,0000.57,0000.33,0000.34,0000.96,0000.67,0000.77,19.1,25.3,06.1,04.2,0671.7,30.9
2021-08-27T09:11:00Z,00000200,00000000,0003.10,0003.32,0002.19,0000.14,0000.52,0000.16,0000.86,0001.20,0000.31,19.0,25.3,06.2,04.2,0671.6,30.8
2021-08-27T09:12:00Z,00000200,00000000,0003.81,0002.89,0001.98,0000.78,0000.10,0000.31,0000.68,0000.13,0000.73,19.0,25.2,06.2,04.2,0671.8,30.8
2021-08-27T09:13:00Z,00000200,00000000,0003.99,0003.32,0001.73,0000.04,0000.28,0000.32,0000.63,0000.87,0000.37,19.0,25.2,06.2,04.2,0671.6,30.8
2021-08-27T09:14:00Z,00000200,00000000,0004.04,0003.06,0002.21,0000.16,0000.39,0000.28,0000.87,0000.83,0000.86,18.9,25.2,06.2,04.2,0671.6,30.8
2021-08-27T09:15:00Z,00000200,00000000,0004.45,0002.79,0002.00,0000.40,0000.34,0000.47,0000.36,0000.46,0000.54,18.9,25.2,06.3,04.3,0671.5,30.8
2021-08-27T09:16:00Z,00000200,00000000,0003.74,0003.16,0001.79,0000.36,0000.43,0000.35,0000.77,0000.44,0000.27,18.9,25.2,06.2,04.3,0671.6,30.9
2021-08-27T09:17:00Z,00000200,00000000,0004.12,0003.00,0001.77,-000.05,0000.16,0000.55,0000.46,0000.32,0000.35,19.0,25.2,06.3,04.3,0671.6,30.9
2021-08-27T09:18:00Z,00000200,00000000,0003.30,0002.97,0002.06,0000.63,0000.75,0000.24,0000.58,0001.13,0000.87,19.1,25.3,06.3,04.3,0671.6,30.9
2021-08-27T09:19:00Z,00000200,00000000,0003.73,0003.51,0001.84,-000.19,0000.54,0000.44,0000.92,0000.79,0000.27,19.2,25.4,06.3,04.3,0671.6,30.9
2021-08-27T09:20:00Z,00000200,00000000,0003.37,0003.23,0002.21,0000.53,0000.07,0000.24,0000.54,0000.32,0000.92,19.3,25.4,06.2,04.3,0671.5,30.9
2021-08-27T09:21:00Z,00000200,00000000,0004.53,0002.95,0002.16,0000.26,0000.43,0000.22,0000.95,0000.65,0000.18,19.3,25.4,06.2,04.3,0671.6,30.9
2021-08-27T09:22:00Z,00000200,00000000,0004.05,0002.82,0001.91,0000.03,0000.29,0000.14,0000.61,0000.96,0000.37,19.2,25.4,06.2,04.3,0671.5,30.9
2021-08-27T09:23:00Z,00000200,00000000,0004.05,0002.84,0002.04,0000.02,0000.45,0000.61,0000.79,0000.80,0001.11,19.2,25.4,06.2,04.3,0671.5,30.9
2021-08-27T09:24:00Z,00000200,00000000,0004.06,0003.01,0002.02,0000.24,0000.21,0000.22,0000.63,0000.48,0000.15,19.1,25.3,06.2,04.3,0671.6,30.9
2021-08-27T09:25:00Z,00000200,00000000,0003.74,0003.09,0001.87,0000.68,0000.37,0000.28,0000.88,0001.25,0001.01,19.1,25.3,06.3,04.3,0671.6,30.8
2021-08-27T09:26:00Z,00000200,00000000,0003.88,0002.88,0002.14,0000.30,0000.34,0000.30,0000.96,0000.42,0000.37,19.1,25.3,06.3,04.3,0671.5,30.8
2021-08-27T09:27:00Z,00000200,00000000,0004.49,0002.76,0002.02,0000.48,0000.43,0000.27,0000.68,0000.70,0000.91,19.0,25.3,06.4,04.4,0671.5,30.8
2021-08-27T09:28:00Z,00000200,00000000,0003.60,0003.31,0002.22,-000.19,0000.56,0000.44,0000.75,0000.68,-000.10,19.0,25.2,06.5,04.4,0671.5,30.8
2021-08-27T09:29:00Z,00000200,00000000,0003.85,0003.07,0002.61,0000.11,0000.48,0000.58,0000.60,0000.43,0000.69,18.9,25.2,06.4,04.3,0671.5,30.8
2021-08-27T09:30:00Z,00000200,00000000,0004.21,0002.31,0002.33,0000.15,0000.74,0000.55,0000.52,0000.40,0000.65,18.9,25.2,06.5,04.4,0671.5,30.8
2021-08-27T09:31:00Z,00000200,00000000,0003.62,0002.80,0002.45,0000.27,0000.58,0000.63,0000.67,0000.64,0000.50,19.0,25.2,06.5,04.5,0671.5,30.9
2021-08-27T09:32:00Z,00000200,00000000,0003.55,0002.91,0002.11,0000.71,0000.39,0000.65,0000.83,0000.77,0000.85,19.1,25.3,06.4,04.4,0671.5,30.9
2021-08-27T09:33:00Z,00000200,00000000,0004.06,0003.09,0002.23,0000.05,0000.35,0000.05,0000.70,0000.79,0000.37,19.1,25.3,06.4,04.4,0671.5,30.9
2021-08-27T09:34:00Z,00000200,00000000,0003.92,0003.04,0001.98,0000.29,0000.41,0000.27,0000.48,0000.11,0000.03,19.2,25.4,06.4,04.4,0671.4,30.9
2021-08-27T09:35:00Z,00000200,00000000,0004.22,0003.05,0001.99,0000.43,0000.50,0000.14,0000.84,0001.06,0000.90,19.2,25.3,06.3,04.3,0671.5,30.9
2021-08-27T09:36:00Z,00000200,00000000,0004.11,0002.79,0002.17,0000.30,0000.38,0000.32,0000.73,0000.62,0000.57,19.2,25.3,06.3,04.3,0671.3,30.9
2021-08-27T09:37:00Z,00000200,00000000,0003.71,0003.49,0002.26,0000.22,0000.51,0000.41,0000.60,0000.28,0000.15,19.2,25.3,06.3,04.3,0671.3,30.9
2021-08-27T09:38:00Z,00000200,00000000,0004.81,0002.94,0002.33,0001.23,0000.47,0000.22,0000.56,0001.02,0000.76,19.1,25.3,06.2,04.3,0671.3,30.9
2021-08-27T09:39:00Z,00000200,00000000,0004.19,0003.02,0002.21,0000.84,0000.68,0000.02,0000.88,0000.67,0000.60,19.1,25.3,06.2,04.3,0671.3,30.8
2021-08-27T09:40:00Z,00000200,00000000,0003.56,0003.43,0002.03,0000.97,0000.53,0000.34,0000.58,0000.62,0000.80,19.0,25.3,06.4,04.4,0671.4,30.8
2021-08-27T09:41:00Z,00000200,00000000,0003.86,0003.17,0001.96,0000.39,0000.47,0000.12,0000.59,0000.67,0000.77,19.0,25.2,06.3,04.3,0671.2,30.8
2021-08-27T09:42:00Z,00000200,00000000,0003.65,0002.91,0002.06,0000.94,0000.37,0000.22,0001.00,0000.81,0000.38,19.0,25.2,06.2,04.3,0671.3,30.8
2021-08-27T09:43:00Z,00000200,00000000,0003.59,0003.05,0002.12,-000.01,0000.48,0000.19,0000.44,0000.63,0000.26,18.9,25.2,06.3,04.3,0671.3,30.8
2021-08-27T09:44:00Z,00000200,00000000,0003.19,0003.01,0002.14,0000.83,0000.38,0000.67,0000.36,0000.45,0000.34,18.9,25.2,06.3,04.3,0671.2,30.8
2021-08-27T09:45:00Z,00000200,00000000,0004.33,0003.11,0002.22,0000.18,0000.29,0000.48,0000.95,0000.24,0000.78,18.9,25.2,06.2,04.2,0671.3,30.8
2021-08-27T09:46:00Z,00000200,00000000,0004.24,0002.93,0001.99,0000.13,0000.35,0000.64,0000.72,0000.85,0000.11,18.9,25.2,06.3,04.3,0671.3,30.9
2021-08-27T09:47:00Z,00000200,00000000,0003.80,0003.04,0002.18,0000.04,0000.41,0000.46,0000.42,0000.53,0000.75,19.0,25.2,06.2,04.3,0671.1,30.9
2021-08-27T09:48:00Z,00000200,00000000,0004.60,0002.99,0002.13,0000.47,0000.31,0000.05,0000.85,0000.78,0000.26,19.1,25.3,06.2,04.3,0671.1,30.9
2021-08-27T09:49:00Z,00000200,00000000,0004.40,0003.10,0002.14,0000.35,0000.40,0000.56,0000.25,0000.20,0000.69,19.2,25.3,06.2,04.3,0671.1,30.9
2021-08-27T09:50:00Z,00000200,00000000,0003.82,0003.26,0002.18,0000.01,0000.66,0000.13,0000.68,0000.92,0000.60,19.3,25.4,06.0,04.2,0671.1,30.9
2021-08-27T09:51:00Z,00000200,00000000,0004.56,0003.36,0002.09,0000.25,0000.52,0000.32,0001.09,0000.68,0000.54,19.3,25.4,06.1,04.2,0671.1,30.9
2021-08-27T09:52:00Z,00000200,00000000,0004.35,0003.31,0001.96,0000.32,0000.67,0000.15,0000.76,0000.76,0000.62,19.3,25.4,06.0,04.1,0671.1,30.9
2021-08-27T09:53:00Z,00000200,00000000,0003.80,0003.48,0002.58,0000.74,0000.74,0000.53,0000.71,0001.13,0000.61,19.2,25.3,06.0,04.1,0671.1,30.9
2021-08-27T09:54:00Z,00000200,00000000,0003.96,0003.46,0002.19,0000.45,0000.65,0000.48,0000.70,0000.23,0000.22,19.2,25.3,06.1,04.2,0671.1,30.9
2021-08-27T09:55:00Z,00000200,00000000,0003.97,0003.25,0002.22,0000.12,0000.65,0000.28,0000.84,0000.56,0001.07,19.1,25.3,06.0,04.1,0671.1,30.9
2021-08-27T09:56:00Z,00000200,00000000,0004.36,0003.07,0002.07,0000.13,0000.26,0000.29,0000.83,0000.56,0000.50,19.1,25.3,06.0,04.1,0671.1,30.8
2021-08-27T09:57:00Z,00000200,40000000,,,,,,,0000.21,0000.56,0000.02,19.1,25.3,05.7,03.9,0671.2,30.9
2021-08-27T09:58:00Z,00000200,60000000,,,,,,,-000.08,-000.16,0000.28,18.8,25.3,06.1,04.1,0670.2,30.8
2021-08-27T09:59:00Z,00000200,20000000,,,,,,,-000.07,-000.26,-000.33,18.8,25.4,06.2,04.1,0670.1,30.8
